Flag for Puerto Rico Weather past 2 weeks in San Juan, Puerto Rico

Now
77 °F

Passing clouds.


Feels Like: 79 °F
Forecast: 76 / 86 °F
Wind: 5 mph from Southeast

Location: Luis Munoz Marin

Current Time: Mar 28, 2015 at 12:44:15 AM

Latest Report: Mar 27, 2015 at 11:56 PM


Visibility: 10 mi

Pressure: 30.09 "Hg

Humidity: 77%

Dew point: 69 °F

Location of San JuanLocation

Historic Weather in San Juan — Graph

°F

San Juan temperature yesterday

Maximum temperature yesterday: 86 °F (at 12:56 PM)
Minimum temperature yesterday: 75 °F (at 2:56 AM)
Average temperature yesterday: 80 °F

Past Weeks' High & Low Weather Summary

 TemperatureHumidityPressure
High86 °F (Mar 27, 12:56 PM)94% (Mar 13, 7:56 PM)30.11 "Hg (Mar 13, 7:56 PM)
Low71 °F (Mar 17, 4:56 AM)49% (Mar 27, 3:56 PM)29.94 "Hg (Mar 18, 3:56 PM)
Average78 °F78%30.03 "Hg
* Reported Mar 12 10:56 PM — Mar 27 10:56 PM, San Juan, Weather by CustomWeather, © 2015

Note: Actual official high and low records may vary slightly from our data, if they occured in-between our weather recording intervals... More about our weather records

Advertising

San Juan weather history for previous 24 hours

 ConditionsComfort  
Time TempWeatherWind HumidityBarometerVisibility
10:56 PM
Fri, Mar 27
76 °FPassing clouds.7 mph80%30.10 "Hg10 mi
9:56 PM77 °FPassing clouds.8 mph77%30.10 "Hg10 mi
8:56 PM77 °FPassing clouds.9 mph79%30.10 "Hg10 mi
7:56 PM78 °FPassing clouds.12 mph76%30.07 "Hg10 mi
6:56 PM79 °FPassing clouds.13 mph77%30.05 "Hg10 mi
5:56 PM82 °FPassing clouds.14 mph65%30.03 "Hg10 mi
4:56 PM84 °FPassing clouds.16 mph61%30.02 "Hg10 mi
3:56 PM86 °FScattered clouds.18 mph49%30.02 "Hg10 mi
2:56 PM86 °FScattered clouds.23 mph55%30.02 "Hg10 mi
1:56 PM86 °FScattered clouds.22 mph61%30.03 "Hg10 mi
12:56 PM86 °FScattered clouds.17 mph59%30.06 "Hg10 mi
11:56 AM85 °FScattered clouds.6 mph63%30.08 "Hg10 mi
10:56 AM85 °FScattered clouds.12 mph63%30.10 "Hg10 mi
9:56 AM84 °FScattered clouds.15 mph65%30.10 "Hg10 mi
8:56 AM80 °FBroken clouds.8 mph76%30.09 "Hg10 mi
7:56 AM78 °FScattered clouds.8 mph76%30.08 "Hg10 mi
6:56 AM76 °FPassing clouds.3 mph85%30.06 "Hg10 mi
5:56 AM75 °FPassing clouds.No wind85%30.04 "Hg10 mi
4:56 AM76 °FPassing clouds.7 mph82%30.03 "Hg10 mi
3:56 AM76 °FPassing clouds.6 mph82%30.02 "Hg10 mi
2:56 AM75 °FPassing clouds.7 mph85%30.02 "Hg10 mi
1:56 AM76 °FPassing clouds.5 mph82%30.04 "Hg10 mi
12:56 AM76 °FPassing clouds.8 mph82%30.06 "Hg10 mi
Weather by CustomWeather, © 2015

See weather overviewHow to use our weather pages